Mount Crosby, Australia

10:48 PM AEST on April 27, 2017 (GMT +1000)
Mount Crosby | | Change Station

Elev 0 ft 27.53 °S, 152.82 °E | Updated 3 minutes ago

Partly Cloudy
Partly Cloudy
56.7 °F
Feels Like 56.7 °F
N
0.6
Wind Variable Wind from NW
Gusts 2.5 mph

Today
High -- | Low -- °F
--% Chance of Precip.
Yesterday
High -- | Low -- °F
Precip. -- in
Pressure 29.98 in
Visibility 6.2 miles
Clouds Scattered Clouds 7000 ft
Dew Point 48 °F
Humidity 73%
Rainfall 0.00 in
Snow Depth Not available.
6:11 AM 5:20 PM
New Moon, 2% visible
METAR YAMB 271230Z AUTO 00000KT 9999 // SCT070 10/08 Q1015
Pressure 29.98 in
Visibility 6.2 miles
Clouds Scattered Clouds 7000 ft
Dew Point 48 °F
Humidity 73%
Rainfall 0.00 in
Snow Depth Not available.
6:11 AM 5:20 PM
New Moon, 2% visible
METAR YAMB 271230Z AUTO 00000KT 9999 // SCT070 10/08 Q1015

Get Severe Weather Alerts

Thanks for signing up!

Be on the lookout for a verification email in your inbox.

You'll start receiving the daily forecast at 8 AM.

×

10-Day Weather Forecast

×

Almanac

Astronomy

Apr. 27, 2017 Rise Set
Actual Time
Civil Twilight
Nautical Twilight
Astronomical Twilight
Moon
Length of Visible Light
Length of Day
Tomorrow will be .
, % of the Moon is Illuminated

Today's Extremes

Country Highs Country Lows

Community

WunderPhotos

WunderBlog® & News

Nearby

Air Quality

  Air Quality AQ Index Pollutant
Not available.

Snow Depth

Station Depth Elevation

Earthquake Activity

City Distance Mag. Time & Date
Minimum magnitude displayed is 2.5.

Coastal Water Temperatures

Place Temperature

Stations

Nearby Weather Stations

Station Location Temp. Windchill Dew Point Humidity Wind Precip. Elev Updated Type